When you browse on this site, cookies collect data to enhance your experience and personalize the content and advertising you see.
Visit our Privacy Policy to learn more. By continuing to use the site, you agree to this use of cookies and data.
  • In United Kingdom
  • List of Countries
  • For 7 days
  • Water Temperature
  • Satellite Maps
  • Weather Map
  • Weather Widgets
  • user-avatar
    Login

    Hourly Weather Kerewan

    Today, 19 November, Monday

    Time Temperature Precipitation Wind Pressure Humidity
    00:00 +27°C° 0.1 mm 2 mps 758 mmHg 56%
    01:00 +27°C° 0.1 mm 2 mps 758 mmHg 60%
    02:00 +26°C° 0.1 mm 2 mps 758 mmHg 64%
    03:00 +26°C° 0.1 mm 2 mps 758 mmHg 66%
    04:00 +25°C° 0.1 mm 1 mps 758 mmHg 68%
    05:00 +25°C° 0.1 mm 1 mps 758 mmHg 70%
    06:00 +25°C° 0 mm 1 mps 759 mmHg 68%
    07:00 +26°C° 0 mm 1 mps 759 mmHg 66%
    08:00 +26°C° 0 mm 1 mps 759 mmHg 65%
    09:00 +28°C° 0 mm 1 mps 759 mmHg 58%
    10:00 +30°C° 0 mm 2 mps 759 mmHg 52%
    11:00 +31°C° 0 mm 2 mps 759 mmHg 46%
    12:00 +32°C° 0.1 mm 2 mps 758 mmHg 47%
    13:00 +32°C° 0.1 mm 2 mps 758 mmHg 47%
    14:00 +32°C° 0.1 mm 2 mps 757 mmHg 47%
    15:00 +31°C° 0 mm 2 mps 757 mmHg 52%
    16:00 +30°C° 0 mm 2 mps 757 mmHg 56%
    17:00 +29°C° 0 mm 3 mps 757 mmHg 60%
    18:00 +28°C° 0 mm 2 mps 757 mmHg 63%
    19:00 +27°C° 0 mm 2 mps 758 mmHg 67%
    20:00 +27°C° 0 mm 1 mps 759 mmHg 70%
    21:00 +26°C° 0 mm 1 mps 759 mmHg 72%
    22:00 +26°C° 0 mm 1 mps 759 mmHg 73%
    23:00 +25°C° 0 mm 1 mps 759 mmHg 75%

    Tomorrow, 20 November, Tuesday

    Time Temperature Precipitation Wind Pressure Humidity
    00:00 +25°C° 0 mm 1 mps 759 mmHg 75%
    01:00 +25°C° 0 mm 1 mps 759 mmHg 75%
    02:00 +25°C° 0 mm 1 mps 758 mmHg 75%
    03:00 +24°C° 0 mm 2 mps 758 mmHg 75%
    04:00 +24°C° 0 mm 2 mps 758 mmHg 74%
    05:00 +24°C° 0 mm 2 mps 758 mmHg 73%
    06:00 +25°C° 0 mm 2 mps 758 mmHg 67%
    07:00 +26°C° 0 mm 2 mps 759 mmHg 61%
    08:00 +27°C° 0 mm 2 mps 759 mmHg 55%
    09:00 +29°C° 0 mm 3 mps 759 mmHg 48%
    10:00 +33°C° 0 mm 3 mps 759 mmHg 40%
    11:00 +35°C° 0 mm 3 mps 759 mmHg 33%
    12:00 +36°C° 0 mm 3 mps 758 mmHg 31%
    13:00 +37°C° 0 mm 2 mps 757 mmHg 29%
    14:00 +38°C° 0 mm 2 mps 756 mmHg 27%
    15:00 +37°C° 0 mm 2 mps 756 mmHg 30%
    16:00 +36°C° 0 mm 2 mps 756 mmHg 32%
    17:00 +35°C° 0 mm 2 mps 756 mmHg 35%
    18:00 +34°C° 0 mm 2 mps 757 mmHg 39%
    19:00 +31°C° 0 mm 3 mps 757 mmHg 44%
    20:00 +30°C° 0 mm 3 mps 758 mmHg 48%
    21:00 +29°C° 0 mm 3 mps 758 mmHg 50%
    22:00 +28°C° 0 mm 3 mps 758 mmHg 53%
    23:00 +27°C° 0 mm 3 mps 758 mmHg 56%

    Day after tomorrow, 21 November, Wednesday

    Time Temperature Precipitation Wind Pressure Humidity
    00:00 +27°C° 0 mm 3 mps 758 mmHg 56%
    01:00 +26°C° 0 mm 3 mps 758 mmHg 57%
    02:00 +26°C° 0 mm 3 mps 757 mmHg 58%
    03:00 +26°C° 0 mm 3 mps 757 mmHg 57%
    04:00 +25°C° 0 mm 3 mps 757 mmHg 55%
    05:00 +25°C° 0 mm 3 mps 757 mmHg 54%
    06:00 +26°C° 0 mm 3 mps 758 mmHg 51%
    07:00 +27°C° 0 mm 4 mps 759 mmHg 47%
    08:00 +28°C° 0 mm 4 mps 759 mmHg 43%
    09:00 +30°C° 0 mm 4 mps 759 mmHg 38%
    10:00 +34°C° 0 mm 4 mps 759 mmHg 32%
    11:00 +36°C° 0 mm 4 mps 759 mmHg 27%
    12:00 +37°C° 0 mm 3 mps 758 mmHg 26%
    13:00 +38°C° 0 mm 3 mps 757 mmHg 26%
    14:00 +39°C° 0 mm 2 mps 756 mmHg 25%
    15:00 +38°C° 0 mm 2 mps 756 mmHg 28%
    16:00 +37°C° 0 mm 2 mps 756 mmHg 30%
    17:00 +36°C° 0 mm 2 mps 756 mmHg 33%
    18:00 +34°C° 0 mm 3 mps 756 mmHg 37%
    19:00 +33°C° 0 mm 3 mps 757 mmHg 41%
    20:00 +30°C° 0 mm 4 mps 758 mmHg 45%
    21:00 +29°C° 0 mm 4 mps 758 mmHg 47%
    22:00 +29°C° 0 mm 4 mps 758 mmHg 50%
    23:00 +28°C° 0 mm 4 mps 758 mmHg 52%

    22 November, Thursday

    Time Temperature Precipitation Wind Pressure Humidity
    00:00 +27°C° 0 mm 4 mps 758 mmHg 53%
    01:00 +27°C° 0 mm 4 mps 757 mmHg 55%
    02:00 +26°C° 0 mm 4 mps 757 mmHg 57%
    03:00 +26°C° 0 mm 4 mps 757 mmHg 57%
    04:00 +26°C° 0 mm 4 mps 757 mmHg 58%
    05:00 +25°C° 0 mm 3 mps 757 mmHg 59%
    06:00 +26°C° 0 mm 4 mps 758 mmHg 56%
    07:00 +27°C° 0 mm 4 mps 758 mmHg 52%
    08:00 +28°C° 0 mm 4 mps 759 mmHg 49%
    09:00 +30°C° 0 mm 5 mps 758 mmHg 42%
    10:00 +34°C° 0 mm 5 mps 758 mmHg 35%
    11:00 +36°C° 0 mm 5 mps 758 mmHg 28%
    12:00 +37°C° 0 mm 4 mps 757 mmHg 26%
    13:00 +38°C° 0 mm 4 mps 756 mmHg 25%
    14:00 +39°C° 0 mm 3 mps 755 mmHg 23%
    15:00 +38°C° 0 mm 3 mps 755 mmHg 26%
    16:00 +37°C° 0 mm 3 mps 755 mmHg 29%
    17:00 +36°C° 0 mm 3 mps 755 mmHg 31%
    18:00 +35°C° 0 mm 4 mps 756 mmHg 35%
    19:00 +33°C° 0 mm 4 mps 757 mmHg 38%
    20:00 +32°C° 0 mm 5 mps 757 mmHg 41%
    21:00 +30°C° 0 mm 5 mps 757 mmHg 43%
    22:00 +29°C° 0 mm 5 mps 757 mmHg 45%
    23:00 +28°C° 0 mm 5 mps 757 mmHg 46%

    23 November, Friday

    Time Temperature Precipitation Wind Pressure Humidity
    00:00 +28°C° 0 mm 5 mps 757 mmHg 48%
    01:00 +27°C° 0 mm 5 mps 757 mmHg 49%
    02:00 +27°C° 0 mm 5 mps 756 mmHg 51%
    03:00 +27°C° 0 mm 4 mps 756 mmHg 52%
    04:00 +26°C° 0 mm 4 mps 756 mmHg 54%
    05:00 +26°C° 0 mm 3 mps 756 mmHg 55%
    06:00 +27°C° 0 mm 4 mps 757 mmHg 54%
    07:00 +27°C° 0 mm 4 mps 758 mmHg 52%
    08:00 +28°C° 0 mm 4 mps 758 mmHg 50%
    09:00 +30°C° 0 mm 4 mps 758 mmHg 47%
    10:00 +32°C° 0 mm 5 mps 758 mmHg 44%
    11:00 +34°C° 0 mm 6 mps 758 mmHg 40%
    12:00 +34°C° 0 mm 6 mps 757 mmHg 39%
    13:00 +35°C° 0 mm 5 mps 757 mmHg 37%
    14:00 +35°C° 0 mm 5 mps 756 mmHg 35%
    15:00 +35°C° 0 mm 5 mps 756 mmHg 36%
    16:00 +34°C° 0 mm 5 mps 756 mmHg 37%
    17:00 +34°C° 0 mm 4 mps 756 mmHg 38%
    18:00 +32°C° 0 mm 5 mps 756 mmHg 40%
    19:00 +30°C° 0 mm 5 mps 757 mmHg 43%
    20:00 +29°C° 0 mm 5 mps 757 mmHg 46%
    21:00 +29°C° 0 mm 5 mps 757 mmHg 49%
    22:00 +28°C° 0 mm 5 mps 757 mmHg 52%
    23:00 +27°C° 0 mm 5 mps 757 mmHg 55%

    24 November, Saturday

    Time Temperature Precipitation Wind Pressure Humidity
    00:00 +27°C° 0 mm 5 mps 757 mmHg 55%
    01:00 +26°C° 0 mm 5 mps 757 mmHg 55%
    02:00 +26°C° 0 mm 5 mps 756 mmHg 56%
    03:00 +25°C° 0 mm 5 mps 756 mmHg 56%
    04:00 +25°C° 0 mm 5 mps 757 mmHg 56%
    05:00 +23°C° 0 mm 5 mps 757 mmHg 56%
    06:00 +23°C° 0 mm 5 mps 757 mmHg 53%
    07:00 +23°C° 0 mm 5 mps 758 mmHg 51%
    08:00 +25°C° 0 mm 5 mps 758 mmHg 49%
    09:00 +26°C° 0 mm 5 mps 758 mmHg 43%
    10:00 +28°C° 0 mm 5 mps 758 mmHg 38%
    11:00 +29°C° 0 mm 5 mps 758 mmHg 33%
    12:00 +30°C° 0 mm 4 mps 757 mmHg 31%
    13:00 +33°C° 0 mm 4 mps 757 mmHg 28%
    14:00 +34°C° 0 mm 4 mps 756 mmHg 26%
    15:00 +33°C° 0 mm 3 mps 756 mmHg 27%
    16:00 +33°C° 0 mm 3 mps 756 mmHg 28%
    17:00 +31°C° 0 mm 2 mps 756 mmHg 29%
    18:00 +30°C° 0 mm 2 mps 757 mmHg 29%
    19:00 +30°C° 0 mm 2 mps 757 mmHg 30%
    20:00 +29°C° 0 mm 2 mps 757 mmHg 31%
    21:00 +28°C° 0 mm 2 mps 757 mmHg 30%
    22:00 +28°C° 0 mm 3 mps 757 mmHg 30%
    23:00 +27°C° 0 mm 3 mps 757 mmHg 30%
    Show more